BREEZE-M DEB, 38589

Orbit data source: Space-Track

BREEZE-M DEB, 38589 is space debris in HEO originally from a launch on Fri, 14 Mar 2008 UTC launched from the Tyuratam Missile And Space Complex (TTMTR). Debris objects in space refer to the collection of defunct objects orbiting the Earth. Examples of debris include non-operational satellites, rocket bodies, and fragments generated from explosions, collisions, or faulty payload assembly.

Loading next visibility...
Identifier
38589, 2008-011AL
Orbit
HEO
Country
Flag of CISCIS
Related business
Manufacturer
Unknown
Mission
Spacecraft
Bus & Motor
Unknown
Mass
Unknown
Launch date (UTC)
2008-03-14 (18 years ago)
Launch vehicle
Unknown
Launch site
Tyuratam Missile And Space Complex (TTMTR)
Object type
Payload
Rocket body
Debris
Shape & HBR
Unknown shape, 0.2 m
Radar Cross Section
Medium (>0.1 m² and <1 m²)

Expand to show TLE details & history
Last TLE update: 2 days ago

TLE from 2 days ago
0 BREEZE-M DEB
1 38589U 08011AL  26171.35355796  .00000050  00000-0  00000+0 0  9997
2 38589  48.0441 169.6572 6336547 136.7982 295.6466  2.95928028  2906
Epoch: 2026-06-20T08:29Z
TLE epoch observation values (Epoch: 2026-06-20T08:29:07.407Z)
Latitude
-0.00001°
Longitude
133.82701°
Altitude
16,384.066 km
Speed
3.946 km/s
True Right ascension
11h 18m 42s
True Declination
0° 00' 00"
Sunlit
Object was in daylight at epoch
Visualization orbit readout
Latitude
Unknown
Longitude
Unknown
Altitude
Unknown
Speed
Unknown
Apparent Right ascension
Unknown
Apparent Declination
Unknown
Sunlit
N/A
Visualization observer readout
Local Sidereal Time
05:04:12
Azimuth
Unknown
Elevation
Unknown
Doppler factor
Unknown
Orbital elements
Apogee altitude
27,102.091 km
Perigee altitude
1,129.768 km
Semi-major axis
20,494.067 km
Eccentricity
0.63365
Inclination
48.0441°
RAAN
169.6572°
Arg. of periapsis
136.7982°
True anomaly
223.27382°
Mean anomaly
295.6466°
Eccentric anomaly
259.90314°
Mean motion
0.73978 °/min
Orbital period
486.63 mins
BSTAR
0
Loading maneuver chart data...
Computing Atmospheric mass density...
Loading historical data...
Loading historical data...
Loading historical data...
Loading historical data...
Loading historical data...
Loading historical data...
Loading historical data...

Documentation

Showing up to 5 results
|